DateTimeUTC,F1_A11,F1_S11,BsB_S11,BsG_S11,BsR_S11,BbsB_S11,BbsG_S11,BbsR_S11,BaB_A11,BaG_A11,BaR_A11,Tu_S11,T_S11,Uu_S11,U_S11,P_S11,T1_A11
2021-08-06T23:00:00Z,00000200,20000000,,,,,,,0000.31,0000.09,-000.14,18.8,25.6,02.6,01.7,0666.3,31.1
2021-08-06T23:01:00Z,00000200,20000000,,,,,,,-000.40,-000.27,-000.17,18.8,25.7,02.6,01.7,0666.3,31.0
2021-08-06T23:02:00Z,00000200,20000000,,,,,,,0000.29,-000.01,-000.08,18.8,25.7,02.6,01.7,0666.3,31.0
2021-08-06T23:03:00Z,00000200,60000000,,,,,,,0001.20,0001.20,0000.83,18.8,25.7,02.6,01.7,0666.3,31.0
2021-08-06T23:04:00Z,00000200,40000000,0006.91,0005.17,0003.26,0000.65,0000.24,0000.92,0001.51,0001.31,0001.06,18.8,25.4,02.6,01.8,0667.3,31.0
2021-08-06T23:05:00Z,00000200,00000000,0007.54,0005.07,0002.96,0000.70,0000.70,0000.76,0002.52,0002.44,0002.19,18.8,25.4,02.8,01.9,0667.3,31.0
2021-08-06T23:06:00Z,00000200,00000000,0007.09,0005.69,0002.74,0000.72,0000.65,0000.55,0001.92,0001.78,0001.26,18.8,25.4,02.9,02.0,0667.4,31.0
2021-08-06T23:07:00Z,00000200,00000000,0007.12,0005.68,0003.24,0000.89,0000.66,0000.91,0001.13,0001.18,0000.95,18.8,25.3,03.0,02.0,0667.3,31.0
2021-08-06T23:08:00Z,00000200,00000000,0007.77,0005.43,0002.89,0000.63,0000.77,0000.80,0002.04,0001.29,0000.71,18.8,25.3,02.8,01.9,0667.4,31.0
2021-08-06T23:09:00Z,00000200,00000000,0009.10,0005.22,0003.14,0000.88,0000.67,0000.87,0001.49,0001.66,0001.29,18.8,25.3,02.7,01.8,0667.3,31.0
2021-08-06T23:10:00Z,00000200,00000000,0008.84,0005.59,0003.67,0000.64,0000.98,0000.98,0001.58,0001.21,0000.87,18.9,25.3,02.8,01.9,0667.3,31.0
2021-08-06T23:11:00Z,00000200,00000000,0007.82,0005.89,0003.43,0001.46,0000.52,0000.77,0001.72,0001.72,0001.58,18.9,25.4,02.8,01.9,0667.3,31.0
2021-08-06T23:12:00Z,00000200,00000000,0008.14,0005.55,0003.48,0000.56,0000.90,0000.78,0002.09,0002.13,0001.73,18.9,25.4,02.7,01.8,0667.3,31.0
2021-08-06T23:13:00Z,00000200,00000000,0007.50,0005.29,0003.66,0000.79,0000.52,0000.65,0002.02,0002.02,0001.08,18.9,25.4,03.0,02.0,0667.3,31.0
2021-08-06T23:14:00Z,00000200,00000000,0008.00,0005.25,0003.49,0000.90,0000.50,0000.68,0001.84,0001.27,0001.61,18.9,25.4,03.1,02.1,0667.3,31.0
2021-08-06T23:15:00Z,00000200,00000000,0008.36,0005.52,0003.40,0000.47,0000.77,0000.74,0002.05,0001.96,0001.26,18.9,25.3,03.2,02.1,0667.3,31.0
2021-08-06T23:16:00Z,00000200,00000000,0007.44,0005.09,0003.19,0001.07,0000.28,0000.55,0001.83,0001.50,0001.29,18.8,25.3,03.3,02.2,0667.3,31.0
2021-08-06T23:17:00Z,00000200,00000000,0007.76,0004.89,0003.36,0000.83,0000.40,0000.75,0001.72,0001.78,0001.48,18.8,25.3,03.4,02.3,0667.3,31.0
2021-08-06T23:18:00Z,00000200,00000000,0007.85,0004.87,0002.82,0001.05,0000.87,0000.45,0001.78,0001.72,0000.91,18.8,25.3,03.5,02.4,0667.3,31.0
2021-08-06T23:19:00Z,00000200,00000000,0007.98,0005.13,0002.54,0000.90,0000.31,0000.34,0001.57,0001.61,0001.41,18.8,25.3,03.6,02.4,0667.3,31.0
2021-08-06T23:20:00Z,00000200,00000000,0008.15,0005.10,0002.63,0000.17,0000.58,0000.81,0001.70,0001.34,0001.51,18.8,25.3,03.5,02.4,0667.3,31.0
2021-08-06T23:21:00Z,00000200,00000000,0007.68,0004.82,0002.80,0000.64,0000.68,0000.52,0001.64,0001.77,0000.84,18.7,25.2,03.5,02.4,0667.3,31.0
2021-08-06T23:22:00Z,00000200,00000000,0007.30,0004.66,0002.83,0000.94,0000.96,0000.57,0001.68,0001.53,0001.23,18.7,25.2,03.6,02.4,0667.3,31.0
2021-08-06T23:23:00Z,00000200,00000000,0007.08,0005.06,0002.53,0001.02,0000.48,0000.58,0001.75,0001.18,0001.14,18.7,25.2,03.6,02.4,0667.3,31.0
2021-08-06T23:24:00Z,00000200,00000000,0008.17,0005.01,0003.32,0000.15,0000.52,0000.92,0001.71,0001.91,0001.51,18.8,25.2,03.6,02.4,0667.3,31.0
2021-08-06T23:25:00Z,00000200,00000000,0007.23,0004.94,0003.24,0000.51,0000.64,0000.72,0001.50,0001.48,0000.98,18.9,25.3,03.6,02.4,0667.3,31.0
2021-08-06T23:26:00Z,00000200,00000000,0008.00,0005.03,0002.91,0000.52,0000.74,0000.65,0001.53,0001.30,0001.52,18.9,25.3,03.7,02.5,0667.3,31.0
2021-08-06T23:27:00Z,00000200,00000000,0007.76,0005.40,0003.31,-000.06,0000.81,0000.76,0002.06,0001.65,0000.57,18.9,25.3,03.7,02.5,0667.3,31.1
2021-08-06T23:28:00Z,00000200,00000000,0007.82,0005.56,0003.00,0000.93,0000.66,0000.52,0001.25,0001.00,0000.77,18.9,25.3,03.6,02.5,0667.3,31.0
2021-08-06T23:29:00Z,00000200,00000000,0007.97,0005.45,0003.27,0000.69,0000.62,0000.85,0001.27,0001.44,0001.50,18.9,25.3,03.6,02.4,0667.3,31.0
2021-08-06T23:30:00Z,00000200,00000000,0007.69,0004.82,0003.10,0001.03,0000.84,0000.79,0002.13,0001.74,0001.29,18.9,25.3,03.5,02.4,0667.3,31.0
2021-08-06T23:31:00Z,00000200,00000000,0007.86,0004.90,0002.91,0000.77,0000.77,0000.71,0001.23,0001.48,0000.80,18.9,25.3,03.6,02.4,0667.3,31.0
2021-08-06T23:32:00Z,00000200,00000000,0007.83,0005.07,0003.09,0000.78,0000.66,0000.55,0001.53,0000.88,0000.63,18.8,25.3,03.6,02.4,0667.3,31.0
2021-08-06T23:33:00Z,00000200,00000000,0008.20,0005.91,0003.31,0001.30,0000.76,0000.83,0000.33,0000.73,0000.36,18.8,25.3,03.4,02.3,0667.3,31.0
2021-08-06T23:34:00Z,00000200,00000000,0008.81,0005.75,0003.84,0001.05,0000.90,0000.82,0001.49,0001.07,0000.68,18.8,25.3,03.0,02.0,0667.3,31.0
2021-08-06T23:35:00Z,00000200,00000000,0008.00,0005.86,0003.08,0000.81,0000.79,0000.71,0002.15,0001.69,0001.46,18.8,25.2,03.0,02.0,0667.3,31.0
2021-08-06T23:36:00Z,00000200,00000000,0007.81,0005.73,0003.40,0000.66,0000.61,0000.80,0001.61,0001.88,0001.62,18.8,25.2,03.0,02.0,0667.3,31.0
2021-08-06T23:37:00Z,00000200,00000000,0007.83,0006.09,0003.48,0000.99,0000.66,0000.77,0002.13,0001.54,0001.27,18.7,25.2,03.1,02.1,0667.3,31.0
2021-08-06T23:38:00Z,00000200,00000000,0008.37,0005.99,0003.74,0000.18,0000.76,0000.94,0001.94,0001.73,0001.62,18.7,25.2,03.1,02.1,0667.3,31.0
2021-08-06T23:39:00Z,00000200,00000000,0008.42,0005.61,0003.53,0000.75,0000.83,0000.99,0001.91,0002.25,0001.10,18.8,25.2,03.2,02.2,0667.3,31.0
2021-08-06T23:40:00Z,00000200,00000000,0007.34,0005.20,0003.26,0001.26,0000.53,0000.61,0001.70,0001.31,0001.06,18.8,25.2,03.2,02.1,0667.3,31.0
2021-08-06T23:41:00Z,00000200,00000000,0007.54,0005.60,0003.22,0000.66,0000.54,0000.48,0001.34,0001.49,0001.37,18.9,25.3,03.3,02.2,0667.3,31.0
2021-08-06T23:42:00Z,00000200,00000000,0007.69,0005.24,0003.26,0000.82,0000.63,0000.65,0001.54,0001.32,0000.60,18.9,25.3,03.3,02.2,0667.3,31.0
2021-08-06T23:43:00Z,00000200,00000000,0008.11,0005.88,0003.29,0000.29,0000.68,0000.91,0001.59,0001.16,0000.89,18.9,25.3,03.2,02.2,0667.3,31.0
2021-08-06T23:44:00Z,00000200,00000000,0007.64,0005.51,0003.00,0000.15,0000.53,0000.83,0001.62,0001.31,0001.51,18.9,25.2,03.1,02.1,0667.3,31.0
2021-08-06T23:45:00Z,00000200,00000000,0008.64,0005.35,0003.07,0000.39,0000.63,0000.77,0002.26,0002.45,0001.57,18.8,25.2,03.3,02.2,0667.3,31.0
2021-08-06T23:46:00Z,00000200,00000000,0008.07,0005.10,0002.81,0000.08,0000.54,0000.64,0001.92,0001.25,0001.48,18.8,25.2,03.4,02.3,0667.3,31.0
2021-08-06T23:47:00Z,00000200,00000000,0007.45,0005.07,0003.08,0000.37,0000.61,0000.76,0000.68,0001.15,0000.10,18.8,25.2,03.3,02.2,0667.3,31.0
2021-08-06T23:48:00Z,00000200,00000000,0008.30,0005.19,0003.00,0000.60,0000.78,0001.09,0002.38,0001.71,0001.90,18.8,25.2,03.3,02.2,0667.3,31.0
2021-08-06T23:49:00Z,00000200,00000000,0007.32,0005.07,0003.12,0000.32,0000.77,0000.94,0002.08,0002.26,0001.46,18.7,25.2,03.5,02.3,0667.3,31.0
2021-08-06T23:50:00Z,00000200,00000000,0007.43,0005.35,0002.83,0000.61,0000.73,0000.34,0001.24,0001.48,0001.06,18.7,25.2,03.6,02.4,0667.3,31.0
2021-08-06T23:51:00Z,00000200,00000000,0007.32,0004.88,0002.98,0000.70,0000.24,0001.00,0002.51,0002.15,0002.20,18.7,25.2,03.9,02.6,0667.3,31.0
2021-08-06T23:52:00Z,00000200,00000000,0007.03,0004.94,0003.17,0000.51,0000.80,0000.68,0002.51,0002.32,0001.90,18.7,25.1,04.2,02.8,0667.3,31.0
2021-08-06T23:53:00Z,00000200,00000000,0006.45,0004.59,0003.16,0000.78,0000.84,0000.75,0002.46,0002.25,0002.33,18.7,25.1,04.4,03.0,0667.3,31.0
2021-08-06T23:54:00Z,00000200,00000000,0006.76,0004.50,0002.92,0000.80,0000.53,0000.60,0001.29,0001.41,0000.61,18.7,25.1,04.7,03.2,0667.3,31.0
2021-08-06T23:55:00Z,00000200,00000000,0006.91,0004.55,0002.73,0000.37,0000.89,0000.81,0002.01,0001.46,0001.19,18.8,25.2,04.7,03.2,0667.3,31.0
2021-08-06T23:56:00Z,00000200,00000000,0006.01,0004.73,0002.44,0000.53,0000.80,0000.48,0002.73,0002.90,0002.18,18.8,25.2,05.0,03.4,0667.3,31.0
2021-08-06T23:57:00Z,00000200,40000000,,,,,,,-001.35,-001.71,-001.55,18.9,25.2,04.8,03.3,0667.3,31.0
2021-08-06T23:58:00Z,00000200,60000000,,,,,,,0000.41,0000.64,0000.73,18.6,25.3,04.2,02.8,0666.3,31.0
2021-08-06T23:59:00Z,00000200,20000000,,,,,,,0000.56,0000.44,0000.28,18.5,25.4,04.5,02.9,0666.3,31.0
